Weather History for KAZO - November, 2011

Change the Weather History Date:

Thursday, November 17, 2011

  Actual Average Record
Temperature  
Mean Temperature 30 °F 40 °F  
Max Temperature 33 °F 47 °F 71 °F (1953)
Min Temperature 26 °F 33 °F 9 °F (1959)
Degree Days  
Heating Degree Days 35 25  
Month to date heating degree days 371  
Since 1 July heating degree days 963  
Cooling Degree Days 0 0  
Month to date cooling degree days 0  
Year to date cooling degree days 675  
Moisture  
Dew Point 17 °F    
Average Humidity 59    
Maximum Humidity 69    
Minimum Humidity 52    
Precipitation  
Precipitation T in 0.09 in 1.08 in (2013)
Month to date precipitation 1.13 1.83  
Year to date precipitation 32.57  
Sea Level Pressure  
Sea Level Pressure 30.14 in    
Wind  
Wind Speed 10 mph (WSW)    
Max Wind Speed 21 mph    
Max Gust Speed 28 mph    
Visibility 8 miles    
Events Snow    
T = Trace of Precipitation, MM = Missing Value Source: NWS Daily Summary

Daily Weather History Graph

Daily Weather History Graph

Search for Another Location

Airport or City:

Trip Planner

Search our weather history database for the weather conditions in past years. The results will help you decide how hot, cold, wet, or windy it might be!

Date:

Astronomy

Nov. 17, 2011 Rise Set
Actual Time 7:34 AM EST 5:19 PM EST
Civil Twilight 7:04 AM EST 5:49 PM EST
Nautical Twilight 6:30 AM EST 6:23 PM EST
Astronomical Twilight 5:57 AM EST 6:56 PM EST
Moon 11:41 PM EST (11/17) 12:41 PM EST (11/17)
Length of Visible Light 10h 44m
Length of Day
9h 44m
Waning Gibbous, 60% of the Moon is Illuminated
Nov 17
Waning Gibbous
Nov 18
Last Quarter
Nov 25
New
Dec 2
First Quarter
Dec 10
Full

Hourly Weather History & Observations

Time (EST) Temp. Windchill Dew Point Humidity Pressure Visibility Wind Dir Wind Speed Gust Speed Precip Events Conditions
12:53 AM 28.9 °F 23.9 °F 17.1 °F 61% 30.10 in 10.0 mi WSW 4.6 mph - N/A   Clear
1:53 AM 28.0 °F 21.7 °F 16.0 °F 61% 30.09 in 10.0 mi SW 5.8 mph - N/A   Clear
2:53 AM 28.9 °F 22.8 °F 17.1 °F 61% 30.08 in 10.0 mi SW 5.8 mph - N/A   Clear
3:53 AM 28.9 °F 20.4 °F 18.0 °F 64% 30.08 in 10.0 mi SSW 9.2 mph - N/A   Clear
4:53 AM 28.0 °F 20.8 °F 17.1 °F 63% 30.07 in 10.0 mi SW 6.9 mph - N/A   Clear
5:53 AM 28.0 °F 20.8 °F 17.1 °F 63% 30.07 in 10.0 mi SSW 6.9 mph - N/A   Clear
6:53 AM 27.0 °F 20.5 °F 18.0 °F 69% 30.08 in 10.0 mi SW 5.8 mph - N/A   Clear
7:53 AM 28.9 °F 22.8 °F 18.0 °F 64% 30.09 in 10.0 mi SW 5.8 mph - N/A   Overcast
8:53 AM 33.1 °F 24.4 °F 18.0 °F 54% 30.09 in 9.0 mi West 11.5 mph 21.9 mph N/A   Overcast
9:53 AM 33.1 °F 22.6 °F 17.1 °F 52% 30.11 in 9.0 mi West 16.1 mph 25.3 mph N/A   Overcast
10:53 AM 33.1 °F 23.0 °F 18.0 °F 54% 30.12 in 8.0 mi West 15.0 mph 27.6 mph N/A   Overcast
11:53 AM 32.0 °F 20.8 °F 19.0 °F 59% 30.13 in 4.0 mi WNW 17.3 mph 25.3 mph N/A Snow Light Snow
12:53 PM 32.0 °F 21.6 °F 18.0 °F 56% 30.13 in 5.0 mi WNW 15.0 mph 19.6 mph 0.00 in Snow Light Snow
1:53 PM 32.0 °F 21.6 °F 17.1 °F 54% 30.13 in 5.0 mi WNW 15.0 mph 26.5 mph 0.00 in Snow Light Snow
2:53 PM 33.1 °F 23.9 °F 18.0 °F 54% 30.14 in 6.0 mi West 12.7 mph 21.9 mph 0.00 in Snow Light Snow
3:53 PM 32.0 °F 22.5 °F 17.1 °F 54% 30.16 in 7.0 mi West 12.7 mph 24.2 mph 0.00 in Snow Light Snow
4:53 PM 32.0 °F 22.5 °F 16.0 °F 52% 30.18 in 7.0 mi West 12.7 mph 23.0 mph 0.00 in Snow Light Snow
5:53 PM 32.0 °F 24.2 °F 16.0 °F 52% 30.20 in 7.0 mi West 9.2 mph - 0.00 in Snow Light Snow
6:53 PM 32.0 °F 25.6 °F 17.1 °F 54% 30.21 in 8.0 mi West 6.9 mph - 0.00 in Snow Light Snow
7:53 PM 28.9 °F 23.9 °F 17.1 °F 61% 30.23 in 8.0 mi SW 4.6 mph - 0.00 in   Scattered Clouds
8:53 PM 28.9 °F 23.9 °F 17.1 °F 61% 30.23 in 9.0 mi SW 4.6 mph - N/A   Mostly Cloudy
9:53 PM 28.0 °F 20.0 °F 17.1 °F 63% 30.25 in 9.0 mi SSW 8.1 mph - N/A   Scattered Clouds
10:53 PM 27.0 °F 17.3 °F 17.1 °F 66% 30.25 in 8.0 mi SSW 10.4 mph - N/A   Clear
11:53 PM 26.1 °F 17.6 °F 16.0 °F 66% 30.25 in 8.0 mi SSW 8.1 mph - N/A   Clear